| time (UTC) | temp C | wind direction | speed KPH | gust KPH | rain 1hr cm | rain 24hr cm | rain mn cm | humidity % | barometer mb |
| 20260504224052 | 7 | 92 | 32.2 | 80.5 | 0.00 | 0.00 | 0.00 | 70 | 796.9 |
| 20260504223037 | 7 | 92 | 32.2 | 80.5 | 0.00 | 0.00 | 0.00 | 70 | 796.8 |
| 20260504222021 | 7 | 92 | 32.2 | 80.5 | 0.00 | 0.00 | 0.00 | 70 | 796.8 |
| 20260504221005 | 7 | 92 | 32.2 | 80.5 | 0.00 | 0.00 | 0.00 | 70 | 796.7 |
| 20260504215950 | 7 | 92 | 32.2 | 80.5 | 0.00 | 0.00 | 0.00 | 70 | 796.7 |
| 20260504214934 | 7 | 92 | 32.2 | 80.5 | 0.00 | 0.00 | 0.00 | 70 | 796.6 |
| 20260504213921 | 7 | 92 | 32.2 | 80.5 | 0.00 | 0.00 | 0.00 | 70 | 796.6 |
| 20260504212900 | 7 | 92 | 32.2 | 80.5 | 0.00 | 0.00 | 0.00 | 70 | 796.6 |
| 20260504211845 | 7 | 92 | 32.2 | 80.5 | 0.00 | 0.00 | 0.00 | 71 | 796.6 |
| 20260504210830 | 7 | 92 | 32.2 | 80.5 | 0.00 | 0.00 | 0.00 | 71 | 796.7 |
| 20260504205815 | 7 | 92 | 32.2 | 80.5 | 0.00 | 0.00 | 0.00 | 71 | 796.8 |
| 20260504204800 | 8 | 92 | 32.2 | 80.5 | 0.00 | 0.00 | 0.00 | 71 | 796.7 |
| 20260504203745 | 7 | 92 | 32.2 | 80.5 | 0.00 | 0.00 | 0.00 | 71 | 796.6 |
| 20260504202738 | 8 | 92 | 32.2 | 80.5 | 0.00 | 0.00 | 0.00 | 71 | 796.7 |
| 20260504201729 | 8 | 92 | 32.2 | 80.5 | 0.00 | 0.00 | 0.00 | 71 | 796.7 |
| 20260504200718 | 7 | 92 | 32.2 | 80.5 | 0.00 | 0.00 | 0.00 | 71 | 796.8 |
| 20260504193655 | 7 | 92 | 32.2 | 80.5 | 0.00 | 0.00 | 0.00 | 70 | 796.9 |
| 20260504192648 | 8 | 92 | 32.2 | 80.5 | 0.00 | 0.00 | 0.00 | 71 | 796.9 |
| 20260504191640 | 8 | 92 | 32.2 | 80.5 | 0.00 | 0.00 | 0.00 | 71 | 797.0 |
| 20260504190632 | 8 | 92 | 32.2 | 80.5 | 0.00 | 0.00 | 0.00 | 71 | 797.0 |
| 20260504185622 | 8 | 92 | 32.2 | 80.5 | 0.00 | 0.00 | 0.00 | 70 | 797.0 |
| 20260504184613 | 7 | 92 | 32.2 | 80.5 | 0.00 | 0.00 | 0.00 | 70 | 797.1 |
| 20260504182557 | 7 | 92 | 32.2 | 80.5 | 0.00 | 0.00 | 0.00 | 70 | 797.2 |
| 20260504181547 | 7 | 92 | 32.2 | 80.5 | 0.00 | 0.00 | 0.00 | 70 | 797.3 |
| 20260504175531 | 8 | 92 | 32.2 | 80.5 | 0.00 | 0.00 | 0.00 | 70 | 797.5 |
| 20260504174521 | 8 | 92 | 32.2 | 80.5 | 0.00 | 0.00 | 0.00 | 70 | 797.4 |
| 20260504173514 | 8 | 92 | 32.2 | 80.5 | 0.00 | 0.00 | 0.00 | 70 | 797.7 |
| 20260504172506 | 8 | 92 | 32.2 | 80.5 | 0.00 | 0.00 | 0.00 | 70 | 797.9 |
| 20260504171456 | 8 | 92 | 32.2 | 80.5 | 0.00 | 0.00 | 0.00 | 69 | 798.1 |
| 20260504170448 | 9 | 92 | 32.2 | 80.5 | 0.00 | 0.00 | 0.00 | 69 | 798.2 |
| 20260504160352 | 10 | 92 | 32.2 | 80.5 | 0.00 | 0.00 | 0.00 | 68 | 798.6 |
| 20260504150303 | 10 | 92 | 32.2 | 80.5 | 0.00 | 0.00 | 0.00 | 67 | 798.9 |
| 20260504141221 | 10 | 92 | 32.2 | 80.5 | 0.00 | 0.00 | 0.00 | 67 | 799.0 |
| 20260504140213 | 10 | 92 | 32.2 | 80.5 | 0.00 | 0.00 | 0.00 | 68 | 799.0 |
| 20260504130112 | 10 | 92 | 32.2 | 80.5 | 0.00 | 0.00 | 0.00 | 69 | 798.7 |
| 20260504081352 | 11 | 92 | 32.2 | 80.5 | 0.00 | 0.00 | 0.00 | 69 | 796.7 |
| 20260504080335 | 11 | 92 | 32.2 | 80.5 | 0.00 | 0.00 | 0.00 | 69 | 796.6 |
| 20260504070200 | 12 | 92 | 32.2 | 80.5 | 0.00 | 0.00 | 0.00 | 69 | 796.8 |
| 20260504060104 | 13 | 92 | 32.2 | 80.5 | 0.00 | 0.00 | 0.00 | 68 | 797.3 |
| 20260504043954 | 14 | 92 | 32.2 | 80.5 | 0.00 | 0.00 | 0.00 | 69 | 798.3 |
| 20260504042946 | 13 | 92 | 32.2 | 80.5 | 0.00 | 0.00 | 0.00 | 69 | 798.3 |
| 20260504041937 | 13 | 92 | 32.2 | 80.5 | 0.00 | 0.00 | 0.00 | 69 | 798.5 |
| 20260504040931 | 14 | 92 | 32.2 | 80.5 | 0.00 | 0.00 | 0.00 | 68 | 798.6 |
| 20260504035922 | 15 | 92 | 32.2 | 80.5 | 0.00 | 0.00 | 0.00 | 69 | 798.6 |
| 20260504034914 | 16 | 92 | 32.2 | 80.5 | 0.00 | 0.00 | 0.00 | 69 | 798.6 |
| 20260504033906 | 14 | 92 | 32.2 | 80.5 | 0.00 | 0.00 | 0.00 | 69 | 798.8 |
| 20260504032857 | 13 | 92 | 32.2 | 80.5 | 0.00 | 0.00 | 0.00 | 69 | 798.9 |
| 20260504031849 | 13 | 92 | 32.2 | 80.5 | 0.00 | 0.00 | 0.00 | 68 | 798.9 |
| 20260504025831 | 15 | 92 | 32.2 | 80.5 | 0.00 | 0.00 | 0.00 | 68 | 799.0 |
| 20260504023811 | 14 | 92 | 32.2 | 80.5 | 0.00 | 0.00 | 0.00 | 69 | 799.1 |
| 20260504021752 | 15 | 92 | 32.2 | 80.5 | 0.00 | 0.00 | 0.00 | 69 | 799.0 |
| 20260504020744 | 14 | 92 | 32.2 | 80.5 | 0.00 | 0.00 | 0.00 | 69 | 799.0 |
| 20260504015734 | 15 | 92 | 32.2 | 80.5 | 0.00 | 0.00 | 0.00 | 70 | 798.9 |
| 20260504014726 | 15 | 92 | 32.2 | 80.5 | 0.00 | 0.00 | 0.00 | 70 | 798.9 |
| 20260504013716 | 16 | 92 | 32.2 | 80.5 | 0.00 | 0.00 | 0.00 | 70 | 798.9 |
| 20260504011658 | 13 | 92 | 32.2 | 80.5 | 0.00 | 0.00 | 0.00 | 71 | 798.7 |
| 20260504010648 | 15 | 92 | 32.2 | 80.5 | 0.00 | 0.00 | 0.00 | 70 | 798.6 |
| 20260504005638 | 15 | 92 | 32.2 | 80.5 | 0.00 | 0.00 | 0.00 | 71 | 798.5 |
| 20260504004631 | 14 | 92 | 32.2 | 80.5 | 0.00 | 0.00 | 0.00 | 72 | 798.6 |
| 20260504003624 | 14 | 92 | 32.2 | 80.5 | 0.00 | 0.00 | 0.00 | 71 | 798.5 |
| 20260504002616 | 15 | 92 | 32.2 | 80.5 | 0.00 | 0.00 | 0.00 | 71 | 798.4 |
| 20260504000601 | 15 | 92 | 32.2 | 80.5 | 0.00 | 0.00 | 0.00 | 71 | 798.2 |
| 20260503235546 | 12 | 92 | 32.2 | 80.5 | 0.00 | 0.00 | 0.00 | 71 | 798.1 |
| 20260503233513 | 10 | 92 | 32.2 | 80.5 | 0.00 | 0.00 | 0.00 | 72 | 797.9 |
| 20260503232456 | 9 | 92 | 32.2 | 80.5 | 0.00 | 0.00 | 0.00 | 72 | 797.9 |
| 20260503231440 | 8 | 92 | 32.2 | 80.5 | 0.00 | 0.00 | 0.00 | 72 | 797.8 |
| 20260503230425 | 8 | 92 | 32.2 | 80.5 | 0.00 | 0.00 | 0.00 | 72 | 797.7 |
| 20260503225410 | 8 | 92 | 32.2 | 80.5 | 0.00 | 0.00 | 0.00 | 72 | 797.7 |